LBT759 LIRF-DTTA

Flight info

Callsign LBT759
Flight time 0h 58m
Altitude 35000
Route KONUT L44 TURMO DCT RONAB DCT PININ DCT SUSIP UB979 ICANI
Aircraft A20N/M-SDE2E3FGHIRWXY/LB1

Departure

Time 2026-05-08 21:37
Airport Rome–Fiumicino Leonardo da Vinci International Airport (LIRF)

Arrival

Time 2026-05-08 22:35
Airport Tunis Carthage International Airport (DTTA)
Time Latitude Longitude Altitude Speed Heading
2026-05-08 21:21 41.79792 12.25527 14 ft 0 kts 115°
2026-05-08 21:29 41.79793 12.25525 14 ft 2 kts 115°
2026-05-08 21:29 41.79800 12.25504 14 ft 2 kts 115°
2026-05-08 21:29 41.79807 12.25483 14 ft 2 kts 85°
2026-05-08 21:29 41.79801 12.25464 15 ft 2 kts 49°
2026-05-08 21:30 41.79793 12.25450 18 ft 2 kts 24°
2026-05-08 21:31 41.79800 12.25454 16 ft 3 kts 22°
2026-05-08 21:31 41.79819 12.25465 16 ft 4 kts 22°
2026-05-08 21:31 41.79846 12.25480 16 ft 3 kts 22°
2026-05-08 21:32 41.79864 12.25490 15 ft 3 kts 22°
2026-05-08 21:32 41.79922 12.25525 14 ft 15 kts 26°
2026-05-08 21:32 41.79997 12.25601 14 ft 14 kts 84°
2026-05-08 21:32 41.79951 12.25748 15 ft 18 kts 115°
2026-05-08 21:33 41.79953 12.25866 15 ft 13 kts 34°
2026-05-08 21:33 41.80051 12.25931 14 ft 20 kts 23°
2026-05-08 21:33 41.80181 12.26013 15 ft 21 kts 24°
2026-05-08 21:33 41.80318 12.26097 14 ft 22 kts 24°
2026-05-08 21:34 41.80451 12.26175 18 ft 19 kts 11°
2026-05-08 21:34 41.80540 12.26280 16 ft 21 kts 72°
2026-05-08 21:34 41.80596 12.26474 16 ft 23 kts 69°
2026-05-08 21:34 41.80650 12.26680 15 ft 24 kts 70°
2026-05-08 21:35 41.80709 12.26893 13 ft 21 kts 70°
2026-05-08 21:35 41.80769 12.27038 13 ft 17 kts 26°
2026-05-08 21:35 41.80883 12.27008 13 ft 18 kts 341°
2026-05-08 21:35 41.80957 12.26938 12 ft 10 kts 281°
2026-05-08 21:36 41.80944 12.26872 14 ft 2 kts 248°
2026-05-08 21:36 41.80926 12.26811 14 ft 30 kts 250°
2026-05-08 21:36 41.80766 12.26231 19 ft 99 kts 249°
2026-05-08 21:36 41.80463 12.25123 16 ft 151 kts 250°
2026-05-08 21:37 41.80062 12.23681 352 ft 167 kts 249°
2026-05-08 21:37 41.79620 12.22251 1011 ft 167 kts 248°
2026-05-08 21:37 41.79175 12.20852 1524 ft 177 kts 246°
2026-05-08 21:37 41.78686 12.19287 2096 ft 183 kts 251°
2026-05-08 21:38 41.78442 12.17577 2690 ft 194 kts 269°
2026-05-08 21:38 41.78506 12.15762 3226 ft 198 kts 272°
2026-05-08 21:38 41.78298 12.13924 3717 ft 205 kts 245°
2026-05-08 21:38 41.77439 12.12371 4142 ft 215 kts 220°
2026-05-08 21:39 41.76237 12.11103 4764 ft 219 kts 218°
2026-05-08 21:39 41.75065 12.09837 5598 ft 214 kts 220°
2026-05-08 21:39 41.73950 12.08548 6368 ft 212 kts 223°
2026-05-08 21:39 41.72852 12.07215 6971 ft 215 kts 224°
2026-05-08 21:40 41.71728 12.05840 7513 ft 222 kts 222°
2026-05-08 21:40 41.70416 12.04754 8145 ft 226 kts 201°
2026-05-08 21:40 41.68828 12.04330 8557 ft 244 kts 181°
2026-05-08 21:41 41.65198 12.04814 9302 ft 279 kts 187°
2026-05-08 21:41 41.63227 12.04566 9907 ft 289 kts 187°
2026-05-08 21:41 41.61180 12.04359 10474 ft 299 kts 186°
2026-05-08 21:41 41.59071 12.04194 11033 ft 308 kts 185°
2026-05-08 21:42 41.56895 12.04049 11634 ft 316 kts 185°
2026-05-08 21:42 41.54671 12.03918 12203 ft 326 kts 185°
2026-05-08 21:42 41.52337 12.03732 12513 ft 343 kts 186°
2026-05-08 21:42 41.49935 12.03503 13109 ft 349 kts 187°
2026-05-08 21:43 41.47504 12.03262 13797 ft 352 kts 187°
2026-05-08 21:43 41.45048 12.03025 14416 ft 356 kts 187°
2026-05-08 21:43 41.42574 12.02797 15026 ft 359 kts 187°
2026-05-08 21:43 41.40099 12.02580 15611 ft 362 kts 188°
2026-05-08 21:44 41.37569 12.02366 16208 ft 365 kts 188°
2026-05-08 21:44 41.35024 12.02151 16781 ft 368 kts 189°
2026-05-08 21:44 41.32454 12.01933 17377 ft 372 kts 189°
2026-05-08 21:44 41.29872 12.01655 17949 ft 371 kts 195°
2026-05-08 21:45 41.27386 12.00869 18503 ft 366 kts 205°
2026-05-08 21:45 41.24946 11.99817 19004 ft 369 kts 204°
2026-05-08 21:45 41.22496 11.98759 19508 ft 371 kts 204°
2026-05-08 21:45 41.20029 11.97695 20009 ft 374 kts 204°
2026-05-08 21:46 41.17539 11.96625 20505 ft 377 kts 204°
2026-05-08 21:46 41.15042 11.95558 20977 ft 379 kts 203°
2026-05-08 21:46 41.12513 11.94483 21435 ft 382 kts 203°
2026-05-08 21:46 41.09978 11.93406 21904 ft 385 kts 203°
2026-05-08 21:47 41.07415 11.92314 22362 ft 387 kts 203°
2026-05-08 21:47 41.04845 11.91222 22818 ft 390 kts 203°
2026-05-08 21:47 41.02251 11.90123 23267 ft 393 kts 203°
2026-05-08 21:47 40.99640 11.89017 23717 ft 395 kts 202°
2026-05-08 21:48 40.97013 11.87905 24070 ft 397 kts 202°
2026-05-08 21:48 40.94372 11.86784 24411 ft 400 kts 203°
2026-05-08 21:48 40.91746 11.85667 24762 ft 402 kts 203°
2026-05-08 21:48 40.89076 11.84533 25121 ft 404 kts 202°
2026-05-08 21:49 40.86324 11.83648 25465 ft 412 kts 193°
2026-05-08 21:49 40.83437 11.83416 25825 ft 421 kts 183°
2026-05-08 21:49 40.80501 11.83596 26175 ft 423 kts 182°
2026-05-08 21:49 40.77551 11.83782 26514 ft 425 kts 182°
2026-05-08 21:50 40.74589 11.83963 26858 ft 427 kts 183°
2026-05-08 21:50 40.71615 11.84140 27202 ft 428 kts 183°
2026-05-08 21:50 40.68632 11.84314 27554 ft 430 kts 184°
2026-05-08 21:50 40.65632 11.84493 27894 ft 432 kts 184°
2026-05-08 21:51 40.62625 11.84674 28233 ft 433 kts 184°
2026-05-08 21:51 40.59606 11.84854 28560 ft 435 kts 184°
2026-05-08 21:51 40.56566 11.85032 28883 ft 437 kts 184°
2026-05-08 21:51 40.53527 11.85209 29234 ft 437 kts 184°
2026-05-08 21:52 40.50492 11.85386 29633 ft 436 kts 185°
2026-05-08 21:52 40.47466 11.85564 30107 ft 434 kts 185°
2026-05-08 21:52 40.44487 11.85742 30511 ft 432 kts 185°
2026-05-08 21:52 40.41482 11.85925 30922 ft 430 kts 185°
2026-05-08 21:53 40.38497 11.86107 31327 ft 429 kts 185°
2026-05-08 21:53 40.35522 11.86284 31702 ft 428 kts 185°
2026-05-08 21:53 40.32553 11.86457 32078 ft 426 kts 186°
2026-05-08 21:53 40.29594 11.86631 32444 ft 425 kts 186°
2026-05-08 21:54 40.26641 11.86807 32823 ft 424 kts 187°
2026-05-08 21:54 40.23698 11.86982 33214 ft 423 kts 187°
2026-05-08 21:54 40.20760 11.87155 33613 ft 421 kts 187°
2026-05-08 21:54 40.17843 11.87329 34018 ft 418 kts 188°
2026-05-08 21:55 40.14944 11.87503 34373 ft 415 kts 188°
2026-05-08 21:55 40.12067 11.87673 34734 ft 412 kts 188°
2026-05-08 21:55 40.09246 11.87838 35005 ft 412 kts 188°
2026-05-08 21:56 40.03451 11.88145 35065 ft 423 kts 188°
2026-05-08 21:56 39.97479 11.88465 35071 ft 436 kts 188°
2026-05-08 21:57 39.91331 11.88819 35074 ft 448 kts 187°
2026-05-08 21:57 39.85115 11.88614 35045 ft 441 kts 201°
2026-05-08 21:58 39.79093 11.87043 35071 ft 442 kts 202°
2026-05-08 21:58 39.73056 11.85448 35074 ft 443 kts 202°
2026-05-08 21:59 39.66997 11.83867 35072 ft 443 kts 202°
2026-05-08 21:59 39.60986 11.82299 35012 ft 443 kts 204°
2026-05-08 21:59 39.57963 11.81512 34586 ft 440 kts 204°
2026-05-08 22:00 39.54955 11.80742 34344 ft 431 kts 204°
2026-05-08 22:00 39.52085 11.80006 34540 ft 425 kts 204°
2026-05-08 22:00 39.49188 11.79255 34848 ft 424 kts 204°
2026-05-08 22:00 39.46299 11.78492 35033 ft 425 kts 204°
2026-05-08 22:01 39.43378 11.77713 35078 ft 430 kts 204°
2026-05-08 22:01 39.37455 11.76136 35076 ft 438 kts 204°
2026-05-08 22:02 39.31473 11.74588 35079 ft 440 kts 203°
2026-05-08 22:02 39.25469 11.73059 35079 ft 440 kts 203°
2026-05-08 22:03 39.19467 11.71522 35064 ft 439 kts 203°
2026-05-08 22:03 39.13477 11.69974 35089 ft 439 kts 203°
2026-05-08 22:04 39.07491 11.68430 34945 ft 437 kts 203°
2026-05-08 22:04 39.04506 11.67662 34497 ft 438 kts 203°
2026-05-08 22:04 39.01530 11.66904 33999 ft 434 kts 203°
2026-05-08 22:04 38.98584 11.66158 33456 ft 430 kts 202°
2026-05-08 22:05 38.95644 11.65406 32971 ft 430 kts 202°
2026-05-08 22:05 38.92707 11.64644 32469 ft 432 kts 202°
2026-05-08 22:05 38.89748 11.63873 31993 ft 435 kts 202°
2026-05-08 22:05 38.86769 11.63098 31522 ft 439 kts 202°
2026-05-08 22:06 38.83805 11.62333 31065 ft 442 kts 202°
2026-05-08 22:06 38.80778 11.61558 30607 ft 445 kts 202°
2026-05-08 22:06 38.77728 11.60782 30156 ft 448 kts 202°
2026-05-08 22:06 38.74677 11.60015 29578 ft 444 kts 201°
2026-05-08 22:07 38.71658 11.59260 29158 ft 440 kts 201°
2026-05-08 22:07 38.68667 11.58510 28755 ft 436 kts 201°
2026-05-08 22:07 38.65687 11.57759 28356 ft 432 kts 201°
2026-05-08 22:07 38.62747 11.57016 27890 ft 429 kts 201°
2026-05-08 22:08 38.59843 11.56279 27405 ft 424 kts 201°
2026-05-08 22:08 38.56963 11.55544 26928 ft 420 kts 200°
2026-05-08 22:08 38.54112 11.54816 26428 ft 415 kts 200°
2026-05-08 22:08 38.51294 11.54101 25964 ft 411 kts 200°
2026-05-08 22:09 38.48500 11.53396 25508 ft 406 kts 200°
2026-05-08 22:09 38.45731 11.52698 25059 ft 403 kts 200°
2026-05-08 22:09 38.43914 11.52239 24765 ft 400 kts 200°
2026-05-08 22:09 38.40317 11.51329 24397 ft 396 kts 200°
2026-05-08 22:10 38.37612 11.50644 24266 ft 396 kts 200°
2026-05-08 22:10 38.34906 11.49960 24110 ft 395 kts 200°
2026-05-08 22:10 38.32216 11.49278 23922 ft 394 kts 200°
2026-05-08 22:10 38.29540 11.48599 23767 ft 392 kts 200°
2026-05-08 22:11 38.27730 11.48141 23657 ft 392 kts 200°
2026-05-08 22:11 38.25059 11.47467 23478 ft 391 kts 199°
2026-05-08 22:11 38.22423 11.46805 23296 ft 390 kts 199°
2026-05-08 22:11 38.19737 11.46133 23037 ft 389 kts 199°
2026-05-08 22:12 38.17108 11.45475 22776 ft 388 kts 199°
2026-05-08 22:12 38.14463 11.44813 22515 ft 387 kts 199°
2026-05-08 22:12 38.11826 11.44154 22267 ft 386 kts 199°
2026-05-08 22:12 38.09196 11.43499 22108 ft 385 kts 199°
2026-05-08 22:13 38.06568 11.42843 22088 ft 385 kts 199°
2026-05-08 22:13 38.03937 11.42188 22089 ft 385 kts 199°
2026-05-08 22:13 38.01306 11.41533 22088 ft 385 kts 199°
2026-05-08 22:13 37.98674 11.40874 22089 ft 385 kts 199°
2026-05-08 22:14 37.96070 11.40129 22088 ft 380 kts 204°
2026-05-08 22:14 37.93617 11.38965 22088 ft 373 kts 212°
2026-05-08 22:14 37.91365 11.37397 22091 ft 366 kts 220°
2026-05-08 22:14 37.89342 11.35467 22091 ft 361 kts 227°
2026-05-08 22:15 37.87455 11.33373 22090 ft 361 kts 227°
2026-05-08 22:15 37.85562 11.31285 22088 ft 361 kts 227°
2026-05-08 22:15 37.83663 11.29201 21845 ft 361 kts 226°
2026-05-08 22:15 37.81764 11.27126 21596 ft 359 kts 226°
2026-05-08 22:16 37.79885 11.25080 21298 ft 352 kts 226°
2026-05-08 22:16 37.78044 11.23075 20901 ft 346 kts 226°
2026-05-08 22:16 37.76232 11.21100 20496 ft 342 kts 227°
2026-05-08 22:16 37.74469 11.19171 20098 ft 337 kts 227°
2026-05-08 22:17 37.72705 11.17238 19698 ft 334 kts 227°
2026-05-08 22:17 37.70958 11.15327 19290 ft 331 kts 226°
2026-05-08 22:17 37.69222 11.13435 18883 ft 328 kts 226°
2026-05-08 22:17 37.67496 11.11555 18439 ft 328 kts 226°
2026-05-08 22:18 37.65771 11.09675 17924 ft 327 kts 226°
2026-05-08 22:18 37.64052 11.07806 17466 ft 325 kts 226°
2026-05-08 22:18 37.62347 11.05952 17002 ft 324 kts 226°
2026-05-08 22:18 37.60646 11.04101 16543 ft 322 kts 226°
2026-05-08 22:19 37.58949 11.02250 16082 ft 321 kts 226°
2026-05-08 22:19 37.57263 11.00409 15623 ft 321 kts 226°
2026-05-08 22:19 37.55571 10.98565 15164 ft 321 kts 226°
2026-05-08 22:19 37.53886 10.96734 14707 ft 320 kts 226°
2026-05-08 22:20 37.52195 10.94900 14241 ft 321 kts 226°
2026-05-08 22:20 37.50502 10.93068 13765 ft 321 kts 226°
2026-05-08 22:20 37.48809 10.91240 13268 ft 320 kts 226°
2026-05-08 22:20 37.47120 10.89415 12807 ft 318 kts 226°
2026-05-08 22:21 37.45442 10.87605 12325 ft 317 kts 226°
2026-05-08 22:21 37.43770 10.85804 11834 ft 316 kts 225°
2026-05-08 22:21 37.42087 10.84027 11312 ft 317 kts 225°
2026-05-08 22:21 37.40402 10.82288 11018 ft 303 kts 224°
2026-05-08 22:22 37.38840 10.80705 10873 ft 281 kts 225°
2026-05-08 22:22 37.37347 10.79196 10561 ft 270 kts 225°
2026-05-08 22:22 37.35883 10.77703 10450 ft 271 kts 225°
2026-05-08 22:22 37.34417 10.76200 10322 ft 271 kts 225°
2026-05-08 22:23 37.32960 10.74709 10015 ft 269 kts 225°
2026-05-08 22:23 37.31500 10.73212 9549 ft 272 kts 225°
2026-05-08 22:23 37.30031 10.71706 9092 ft 273 kts 225°
2026-05-08 22:23 37.28561 10.70200 8638 ft 269 kts 225°
2026-05-08 22:24 37.27133 10.68739 8186 ft 261 kts 225°
2026-05-08 22:24 37.25731 10.67302 7878 ft 260 kts 225°
2026-05-08 22:24 37.24328 10.65864 7567 ft 260 kts 225°
2026-05-08 22:24 37.22933 10.64434 7224 ft 260 kts 225°
2026-05-08 22:25 37.21535 10.63007 6894 ft 259 kts 225°
2026-05-08 22:25 37.20139 10.61581 6563 ft 258 kts 225°
2026-05-08 22:25 37.18747 10.60160 6215 ft 258 kts 224°
2026-05-08 22:25 37.17356 10.58743 5866 ft 258 kts 224°
2026-05-08 22:26 37.15966 10.57328 5523 ft 258 kts 223°
2026-05-08 22:26 37.14588 10.55926 5182 ft 257 kts 223°
2026-05-08 22:26 37.13192 10.54506 4841 ft 257 kts 222°
2026-05-08 22:26 37.11804 10.53092 4489 ft 257 kts 221°
2026-05-08 22:27 37.10412 10.51677 4134 ft 257 kts 221°
2026-05-08 22:27 37.09033 10.50278 3790 ft 258 kts 220°
2026-05-08 22:27 37.07636 10.48860 3446 ft 258 kts 220°
2026-05-08 22:27 37.06238 10.47444 3117 ft 258 kts 219°
2026-05-08 22:28 37.04750 10.46202 2863 ft 258 kts 203°
2026-05-08 22:28 37.03018 10.45694 2622 ft 256 kts 182°
2026-05-08 22:28 37.01239 10.45587 2364 ft 256 kts 184°
2026-05-08 22:28 36.99454 10.45477 2215 ft 257 kts 183°
2026-05-08 22:29 36.97682 10.45362 2198 ft 248 kts 184°
2026-05-08 22:29 36.96015 10.45253 2198 ft 231 kts 183°
2026-05-08 22:29 36.94441 10.45150 2205 ft 224 kts 184°
2026-05-08 22:29 36.92887 10.45046 2204 ft 223 kts 184°
2026-05-08 22:30 36.91335 10.44942 2207 ft 223 kts 184°
2026-05-08 22:30 36.89788 10.44841 2207 ft 223 kts 184°
2026-05-08 22:30 36.88247 10.44643 2203 ft 222 kts 195°
2026-05-08 22:30 36.86797 10.44043 2206 ft 214 kts 201°
2026-05-08 22:31 36.85515 10.43197 2207 ft 206 kts 218°
2026-05-08 22:31 36.84427 10.42060 2208 ft 203 kts 223°
2026-05-08 22:31 36.83382 10.40883 2212 ft 202 kts 223°
2026-05-08 22:31 36.82380 10.39744 2224 ft 188 kts 223°
2026-05-08 22:32 36.81523 10.38608 2157 ft 174 kts 238°
2026-05-08 22:32 36.81037 10.37293 2050 ft 162 kts 257°
2026-05-08 22:32 36.80922 10.35929 1916 ft 155 kts 276°
2026-05-08 22:32 36.81137 10.34639 1751 ft 149 kts 292°
2026-05-08 22:33 36.81528 10.33462 1563 ft 145 kts 294°
2026-05-08 22:33 36.81916 10.32303 1371 ft 144 kts 294°
2026-05-08 22:33 36.82300 10.31153 1178 ft 143 kts 294°
2026-05-08 22:33 36.82683 10.30006 998 ft 143 kts 294°
2026-05-08 22:34 36.83063 10.28865 800 ft 142 kts 294°
2026-05-08 22:34 36.83425 10.27776 605 ft 141 kts 294°
2026-05-08 22:34 36.83803 10.26644 434 ft 142 kts 293°
2026-05-08 22:34 36.84172 10.25508 227 ft 140 kts 293°
2026-05-08 22:35 36.84548 10.24387 51 ft 139 kts 294°
2026-05-08 22:35 36.84876 10.23425 28 ft 98 kts 292°
2026-05-08 22:35 36.85051 10.22905 31 ft 35 kts 292°
2026-05-08 22:35 36.85141 10.22629 36 ft 21 kts 292°
2026-05-08 22:36 36.85164 10.22471 36 ft 11 kts 229°
2026-05-08 22:36 36.85119 10.22430 33 ft 0 kts 195°
2026-05-08 22:36 36.85111 10.22427 33 ft 3 kts 195°
2026-05-08 22:36 36.85096 10.22422 32 ft 1 kts 195°
2026-05-08 22:37 36.85049 10.22407 31 ft 14 kts 195°
2026-05-08 22:37 36.84959 10.22385 31 ft 13 kts 189°
2026-05-08 22:37 36.84877 10.22360 30 ft 12 kts 195°
2026-05-08 22:37 36.84799 10.22338 30 ft 11 kts 192°
2026-05-08 22:38 36.84722 10.22318 30 ft 12 kts 192°
2026-05-08 22:38 36.84639 10.22296 30 ft 12 kts 192°
2026-05-08 22:38 36.84556 10.22274 30 ft 13 kts 192°
2026-05-08 22:38 36.84495 10.22208 30 ft 12 kts 265°
2026-05-08 22:39 36.84513 10.22112 30 ft 12 kts 300°
2026-05-08 22:39 36.84575 10.22064 30 ft 8 kts 321°
2026-05-08 22:39 36.84599 10.22014 30 ft 5 kts 295°
2026-05-08 22:39 36.84605 10.21998 30 ft 0 kts 296°